When you browse on this site, cookies collect data to enhance your experience and personalize the content and advertising you see.
Visit our Privacy Policy to learn more. By continuing to use the site, you agree to this use of cookies and data.
  • In Portugal
  • List of Countries
  • For 7 days
  • Water Temperature
  • Satellite Maps
  • Weather Map
  • Weather Widgets
  • user-avatar
    Login

    Hourly Weather Muhino

    Today, 19 July, Friday

    Time Temperature Precipitation Wind Pressure Humidity
    00:00 +12°C° 0 mm 1 mps 739 mmHg 95%
    01:00 +12°C° 0 mm 1 mps 739 mmHg 96%
    02:00 +11°C° 0 mm 1 mps 739 mmHg 97%
    03:00 +12°C° 0 mm 1 mps 739 mmHg 96%
    04:00 +12°C° 0 mm 1 mps 739 mmHg 96%
    05:00 +13°C° 0 mm 1 mps 739 mmHg 95%
    06:00 +14°C° 0 mm 1 mps 739 mmHg 91%
    07:00 +15°C° 0 mm 1 mps 739 mmHg 87%
    08:00 +16°C° 0 mm 1 mps 739 mmHg 86%
    09:00 +17°C° 0.6 mm 2 mps 739 mmHg 83%
    10:00 +18°C° 0.6 mm 2 mps 739 mmHg 81%
    11:00 +19°C° 0.6 mm 2 mps 739 mmHg 78%
    12:00 +19°C° 0.8 mm 2 mps 739 mmHg 78%
    13:00 +19°C° 0.8 mm 2 mps 739 mmHg 79%
    14:00 +19°C° 0 mm 2 mps 739 mmHg 72%
    15:00 +19°C° 0.5 mm 2 mps 739 mmHg 74%
    16:00 +20°C° 0.5 mm 1 mps 739 mmHg 76%
    17:00 +20°C° 0.5 mm 1 mps 739 mmHg 77%
    18:00 +19°C° 0.3 mm 1 mps 739 mmHg 83%
    19:00 +18°C° 0.3 mm 1 mps 739 mmHg 88%
    20:00 +15°C° 0.3 mm 1 mps 739 mmHg 93%
    21:00 +15°C° 0.1 mm 1 mps 739 mmHg 93%
    22:00 +14°C° 0.1 mm 1 mps 740 mmHg 94%
    23:00 +14°C° 0.1 mm 1 mps 740 mmHg 95%

    Tomorrow, 20 July, Saturday

    Time Temperature Precipitation Wind Pressure Humidity
    00:00 +13°C° 0 mm 2 mps 740 mmHg 96%
    01:00 +13°C° 0 mm 2 mps 740 mmHg 96%
    02:00 +13°C° 0 mm 2 mps 740 mmHg 97%
    03:00 +13°C° 0 mm 2 mps 741 mmHg 97%
    04:00 +13°C° 0 mm 2 mps 741 mmHg 97%
    05:00 +13°C° 0 mm 3 mps 741 mmHg 98%
    06:00 +14°C° 0 mm 3 mps 742 mmHg 96%
    07:00 +14°C° 0 mm 3 mps 742 mmHg 94%
    08:00 +16°C° 0 mm 3 mps 742 mmHg 93%
    09:00 +16°C° 0 mm 3 mps 743 mmHg 91%
    10:00 +16°C° 0 mm 3 mps 743 mmHg 90%
    11:00 +17°C° 0 mm 3 mps 744 mmHg 88%
    12:00 +17°C° 0 mm 3 mps 744 mmHg 84%
    13:00 +18°C° 0 mm 4 mps 744 mmHg 80%
    14:00 +19°C° 0 mm 4 mps 744 mmHg 76%
    15:00 +19°C° 0.1 mm 3 mps 744 mmHg 76%
    16:00 +20°C° 0.1 mm 3 mps 744 mmHg 75%
    17:00 +20°C° 0.1 mm 3 mps 744 mmHg 75%
    18:00 +19°C° 0.2 mm 3 mps 745 mmHg 82%
    19:00 +18°C° 0.2 mm 3 mps 745 mmHg 89%
    20:00 +17°C° 0.2 mm 3 mps 745 mmHg 95%
    21:00 +16°C° 0.1 mm 3 mps 745 mmHg 96%
    22:00 +16°C° 0.1 mm 3 mps 745 mmHg 97%
    23:00 +14°C° 0.1 mm 3 mps 745 mmHg 97%

    Day after tomorrow, 21 July, Sunday

    Time Temperature Precipitation Wind Pressure Humidity
    00:00 +14°C° 0 mm 3 mps 746 mmHg 97%
    01:00 +13°C° 0 mm 3 mps 746 mmHg 98%
    02:00 +13°C° 0 mm 3 mps 746 mmHg 98%
    03:00 +13°C° 0 mm 3 mps 746 mmHg 97%
    04:00 +13°C° 0 mm 3 mps 746 mmHg 97%
    05:00 +13°C° 0 mm 3 mps 747 mmHg 96%
    06:00 +16°C° 0 mm 3 mps 747 mmHg 91%
    07:00 +17°C° 0 mm 3 mps 747 mmHg 86%
    08:00 +18°C° 0 mm 3 mps 747 mmHg 81%
    09:00 +19°C° 0 mm 3 mps 747 mmHg 77%
    10:00 +20°C° 0 mm 3 mps 747 mmHg 72%
    11:00 +21°C° 0 mm 3 mps 747 mmHg 68%
    12:00 +22°C° 0.4 mm 3 mps 747 mmHg 67%
    13:00 +22°C° 0.4 mm 3 mps 747 mmHg 65%
    14:00 +24°C° 0.4 mm 3 mps 747 mmHg 63%
    15:00 +24°C° 0.3 mm 3 mps 747 mmHg 63%
    16:00 +24°C° 0.3 mm 3 mps 747 mmHg 64%
    17:00 +24°C° 0.3 mm 2 mps 748 mmHg 64%
    18:00 +21°C° 0 mm 2 mps 748 mmHg 68%
    19:00 +19°C° 0 mm 2 mps 748 mmHg 72%
    20:00 +18°C° 0 mm 1 mps 747 mmHg 77%
    21:00 +16°C° 0 mm 1 mps 748 mmHg 79%
    22:00 +15°C° 0 mm 1 mps 748 mmHg 81%
    23:00 +14°C° 0 mm 2 mps 748 mmHg 83%

    22 July, Monday

    Time Temperature Precipitation Wind Pressure Humidity
    00:00 +14°C° 0 mm 2 mps 748 mmHg 86%
    01:00 +13°C° 0 mm 1 mps 748 mmHg 89%
    02:00 +13°C° 0 mm 1 mps 748 mmHg 92%
    03:00 +13°C° 0 mm 1 mps 748 mmHg 92%
    04:00 +14°C° 0 mm 1 mps 748 mmHg 91%
    05:00 +14°C° 0 mm 1 mps 748 mmHg 90%
    06:00 +16°C° 0 mm 1 mps 748 mmHg 84%
    07:00 +19°C° 0 mm 1 mps 748 mmHg 78%
    08:00 +21°C° 0 mm 1 mps 748 mmHg 71%
    09:00 +23°C° 0 mm 1 mps 748 mmHg 65%
    10:00 +24°C° 0 mm 1 mps 748 mmHg 59%
    11:00 +26°C° 0 mm 1 mps 748 mmHg 52%
    12:00 +26°C° 0 mm 1 mps 747 mmHg 51%
    13:00 +26°C° 0 mm 1 mps 747 mmHg 49%
    14:00 +26°C° 0 mm 1 mps 747 mmHg 48%
    15:00 +25°C° 0 mm 1 mps 747 mmHg 52%
    16:00 +25°C° 0 mm 1 mps 747 mmHg 56%
    17:00 +24°C° 0 mm 1 mps 747 mmHg 60%
    18:00 +23°C° 0 mm 1 mps 746 mmHg 67%
    19:00 +21°C° 0 mm 1 mps 746 mmHg 74%
    20:00 +18°C° 0 mm 2 mps 746 mmHg 80%
    21:00 +17°C° 0 mm 2 mps 746 mmHg 84%
    22:00 +16°C° 0 mm 2 mps 746 mmHg 89%
    23:00 +15°C° 0 mm 1 mps 746 mmHg 93%

    23 July, Tuesday

    Time Temperature Precipitation Wind Pressure Humidity
    00:00 +15°C° 0 mm 1 mps 746 mmHg 94%
    01:00 +14°C° 0 mm 1 mps 746 mmHg 95%
    02:00 +14°C° 0 mm 1 mps 746 mmHg 96%
    03:00 +14°C° 0 mm 1 mps 746 mmHg 94%
    04:00 +14°C° 0 mm 1 mps 746 mmHg 92%
    05:00 +15°C° 0 mm 1 mps 746 mmHg 90%
    06:00 +16°C° 0 mm 1 mps 746 mmHg 81%
    07:00 +19°C° 0 mm 1 mps 746 mmHg 72%
    08:00 +20°C° 0 mm 2 mps 746 mmHg 63%
    09:00 +21°C° 0 mm 2 mps 746 mmHg 58%
    10:00 +23°C° 0 mm 2 mps 746 mmHg 53%
    11:00 +24°C° 0 mm 2 mps 746 mmHg 48%
    12:00 +25°C° 0 mm 2 mps 745 mmHg 47%
    13:00 +25°C° 0 mm 2 mps 745 mmHg 45%
    14:00 +25°C° 0 mm 2 mps 745 mmHg 44%
    15:00 +25°C° 0 mm 2 mps 745 mmHg 48%
    16:00 +24°C° 0 mm 2 mps 745 mmHg 52%
    17:00 +24°C° 0 mm 2 mps 745 mmHg 57%
    18:00 +21°C° 0 mm 2 mps 745 mmHg 64%
    19:00 +19°C° 0 mm 2 mps 745 mmHg 72%
    20:00 +18°C° 0 mm 1 mps 745 mmHg 79%
    21:00 +16°C° 0 mm 1 mps 745 mmHg 81%
    22:00 +15°C° 0 mm 1 mps 745 mmHg 82%
    23:00 +14°C° 0 mm 1 mps 745 mmHg 84%

    24 July, Wednesday

    Time Temperature Precipitation Wind Pressure Humidity
    00:00 +14°C° 0 mm 1 mps 745 mmHg 84%
    01:00 +14°C° 0 mm 1 mps 745 mmHg 85%
    02:00 +13°C° 0 mm 1 mps 745 mmHg 85%
    03:00 +14°C° 0 mm 1 mps 745 mmHg 85%
    04:00 +15°C° 0 mm 1 mps 745 mmHg 84%
    05:00 +15°C° 0 mm 1 mps 745 mmHg 83%
    06:00 +18°C° 0 mm 1 mps 745 mmHg 78%
    07:00 +19°C° 0 mm 1 mps 745 mmHg 73%
    08:00 +21°C° 0 mm 1 mps 745 mmHg 68%
    09:00 +22°C° 0.1 mm 1 mps 745 mmHg 62%
    10:00 +23°C° 0.1 mm 1 mps 745 mmHg 55%
    11:00 +25°C° 0.1 mm 2 mps 745 mmHg 49%
    12:00 +25°C° 0.1 mm 2 mps 744 mmHg 48%
    13:00 +25°C° 0.1 mm 2 mps 744 mmHg 47%
    14:00 +25°C° 0.1 mm 2 mps 744 mmHg 46%
    15:00 +25°C° 0 mm 2 mps 744 mmHg 48%
    16:00 +25°C° 0 mm 2 mps 744 mmHg 51%
    17:00 +25°C° 0 mm 2 mps 744 mmHg 53%
    18:00 +23°C° 0 mm 2 mps 744 mmHg 58%
    19:00 +20°C° 0 mm 2 mps 744 mmHg 64%
    20:00 +18°C° 0 mm 2 mps 744 mmHg 69%
    21:00 +17°C° 0 mm 2 mps 744 mmHg 72%
    22:00 +16°C° 0 mm 2 mps 744 mmHg 75%
    23:00 +15°C° 0 mm 2 mps 744 mmHg 78%
    Show more